Location: Valdosta
(30.8330°N, 83.2790°W)
Time: 01:27:41
(UTC-04:00)

Amateur Radio Satellites - All Passes

Search period start: 26 March 2017 00:57
Search period end: 27 March 2017 00:57
Location: Valdosta, 30.8330°N, 83.2790°W

Satellite Date Start Highest point End Downlink Frequencies (MHz)
Time Altitude Azimuth
NANOSAT C BR1 26 Mar 01:00:02 01:04:06 46° 100° (E) 01:08:07 145.865
EO-79 26 Mar 01:03:59 01:08:09 58° 101° (E) 01:12:17 145.935-145.965
AIST 2D 26 Mar 01:09:21 01:12:42 46° 284° (WNW) 01:16:01 435.315
SPROUT 26 Mar 01:12:51 01:17:08 82° 75° (ENE) 01:21:27 437.525
50 SAT 26 Mar 01:20:41 01:24:06 75° 77° (ENE) 01:27:33 437.505
FO-29 26 Mar 01:24:11 01:28:06 19° 295° (WNW) 01:31:47 435.910
POLYITAN 1 26 Mar 01:31:53 01:36:03 59° 284° (WNW) 01:40:09 437.675
QB50P2 26 Mar 01:36:32 01:40:36 47° 285° (WNW) 01:44:38 145.880/145.840
DX 1 26 Mar 01:38:10 01:42:29 73° 76° (ENE) 01:46:49 434.975-435.025
DUCHIFAT 1 26 Mar 01:50:02 01:54:01 42° 286° (WNW) 01:57:57 145.980
VELOX 1 26 Mar 01:59:29 02:02:57 23° 263° (W) 02:06:28 145.980
BUGSAT 1 26 Mar 02:09:13 02:13:23 87° 282° (WNW) 02:17:29 437.445
SO-50 26 Mar 02:18:13 02:21:39 22° 250° (WSW) 02:25:07 436.795
UKube-1 26 Mar 02:20:03 02:24:12 48° 260° (W) 02:28:23 .
ITUPSAT 1 26 Mar 02:26:59 02:27:19 10° 65° (ENE) 02:27:39 437.325
NANOSAT C BR1 26 Mar 02:38:15 02:39:20 11° 293° (WNW) 02:40:24 145.865
Oscar 19 26 Mar 02:44:08 02:49:13 56° 101° (E) 02:54:18 437.125/150
Gurwin Techsat 1B 26 Mar 02:52:38 02:57:32 36° 99° (E) 03:02:22 435.225
O/OREOS (USA 219) 26 Mar 03:19:41 03:23:02 20° 63° (ENE) 03:26:22 437.305
BEESAT 26 Mar 03:43:58 03:48:45 84° 76° (ENE) 03:53:32 436.000
ITUPSAT 1 26 Mar 03:59:45 04:04:31 66° 258° (WSW) 04:09:17 437.325
AO-7 26 Mar 04:05:41 04:12:29 28° 98° (E) 04:19:15 .
MOZHAYETS 4 26 Mar 04:07:23 04:11:53 55° 75° (ENE) 04:16:22
Oscar 19 26 Mar 04:25:29 04:28:00 14° 294° (WNW) 04:30:32 437.125/150
ITAMSAT 1 26 Mar 04:29:34 04:34:37 50° 101° (E) 04:39:37 435.822/435.867
Gurwin Techsat 1B 26 Mar 04:33:12 04:37:10 22° 292° (WNW) 04:41:08 435.225
ISS 26 Mar 04:38:33 04:41:19 25° 39° (NE) 04:44:06 437.550
Tancredo 1 26 Mar 04:41:33 04:44:24 29° 41° (NE) 04:47:15 437.200
CUBESAT XI-V 26 Mar 04:58:24 05:02:19 29° 72° (ENE) 05:06:14 437.345
O/OREOS (USA 219) 26 Mar 04:58:24 05:02:25 30° 257° (WSW) 05:06:24 437.305
KKS-1 26 Mar 05:30:02 05:34:30 81° 259° (WSW) 05:38:59 437.445
AO-7 26 Mar 05:57:27 06:05:24 53° 292° (WNW) 06:13:20 .
STARS 26 Mar 06:08:00 06:12:23 70° 258° (WSW) 06:16:48 437.465
ITAMSAT 1 26 Mar 06:10:39 06:13:36 15° 294° (WNW) 06:16:31 435.822/435.867
ISS 26 Mar 06:15:07 06:17:40 21° 233° (SW) 06:20:13 437.550
Tancredo 1 26 Mar 06:18:17 06:20:20 16° 233° (SW) 06:22:23 437.200
NO-84 26 Mar 06:18:36 06:19:51 12° 123° (ESE) 06:21:07 435.350 FM
AO-85 26 Mar 06:19:53 06:22:07 15° 54° (NE) 06:24:24 145.980
CUBESAT XI-V 26 Mar 06:36:16 06:39:37 20° 264° (W) 06:42:59 437.345
M-CUBED/EXP-1 PRIME 26 Mar 06:41:21 06:44:42 40° 69° (ENE) 06:48:19 437.505
XW-2F 26 Mar 06:46:28 06:48:19 13° 94° (E) 06:50:11 145.980 - 146.000
LilacSat-2 26 Mar 06:46:29 06:48:42 15° 95° (E) 06:50:54 437.200
XW-2D 26 Mar 07:10:42 07:14:04 31° 98° (E) 07:17:25 145.860 - 145.880
NUDT-PHONESAT 26 Mar 07:12:29 07:15:33 25° 97° (E) 07:18:35 437.300
YUBILEINY 26 Mar 07:13:38 07:19:01 18° 82° (E) 07:24:23 435.215
STRAND 1 26 Mar 07:14:15 07:17:49 19° 68° (ENE) 07:21:24 437.568
XW-2B 26 Mar 07:16:31 07:20:00 37° 99° (E) 07:23:29 145.730 - 145.750
KAITUO 1B 26 Mar 07:18:51 07:22:09 30° 98° (E) 07:25:26 145.475/437.950
XW-2C 26 Mar 07:26:32 07:30:11 53° 100° (E) 07:33:50 145.795 - 145.815
DOVE 4 26 Mar 07:29:35 07:34:55 84° 102° (ESE) 07:40:05 437.250
JUGNU 26 Mar 07:47:38 07:51:16 17° 165° (SSE) 07:54:55 437.505
CUTE-I 26 Mar 07:54:19 07:59:41 89° 99° (E) 08:05:00 437.470
NO-84 26 Mar 07:54:44 07:57:10 24° 315° (NW) 07:59:34 435.350 FM
AO-85 26 Mar 07:58:55 08:02:33 35° 246° (WSW) 08:06:21 145.980
XW-2F 26 Mar 08:19:18 08:22:27 26° 287° (WNW) 08:25:35 145.980 - 146.000
LilacSat-2 26 Mar 08:19:50 08:22:55 24° 287° (WNW) 08:25:59 437.200
HO-68 26 Mar 08:30:58 08:37:38 41° 100° (E) 08:44:18 435.675
XW-2D 26 Mar 08:46:32 08:47:55 12° 290° (WNW) 08:49:17 145.860 - 145.880
CUBEBUG 2 26 Mar 08:46:40 08:49:54 20° 95° (E) 08:53:03 437.445
NUDT-PHONESAT 26 Mar 08:47:12 08:49:12 14° 290° (WNW) 08:51:12 437.300
AAUSAT CUBESAT 2 26 Mar 08:49:39 08:51:59 15° 94° (E) 08:54:19 437.432
STRAND 1 26 Mar 08:51:52 08:56:39 39° 261° (W) 09:01:28 437.568
XW-2B 26 Mar 08:53:25 08:53:48 10° 291° (WNW) 08:54:10 145.730 - 145.750
KAITUO 1B 26 Mar 08:54:28 08:55:49 12° 290° (WNW) 08:57:11 145.475/437.950
BEESAT 3 26 Mar 08:59:43 09:03:43 89° 51° (NE) 09:07:42 437.485
SEEDS 26 Mar 09:02:17 09:06:22 50° 100° (E) 09:10:27 437.485
XW-2A 26 Mar 09:05:11 09:08:28 52° 283° (WNW) 09:11:43 145.665 - 145.685
YUBILEINY 26 Mar 09:06:06 09:14:50 72° 277° (W) 09:23:34 435.215
CUTE 1.7 + AOD 2 26 Mar 09:08:10 09:12:23 81° 283° (WNW) 09:16:37 437.475
BEESAT 2 26 Mar 09:14:21 09:18:15 44° 60° (ENE) 09:22:06 435.950
AO-73 26 Mar 09:25:04 09:27:40 16° 95° (E) 09:30:14 145.935
JUGNU 26 Mar 09:34:53 09:39:42 26° 174° (S) 09:44:34 437.505
UNISAT 6 26 Mar 09:43:21 09:44:38 11° 67° (ENE) 09:45:55 437.425
FO-29 26 Mar 09:45:20 09:49:18 15° 63° (ENE) 09:53:08 435.910
UWE-3 26 Mar 09:49:25 09:53:41 74° 102° (ESE) 09:57:50 435.000/436.395/437.385
SRMSAT 26 Mar 09:50:25 09:53:19 14° 162° (SSE) 09:56:12 437.500
DELFI C3 26 Mar 10:13:06 10:15:07 14° 94° (E) 10:17:08 145.870
HO-68 26 Mar 10:19:01 10:25:05 31° 294° (WNW) 10:31:08 435.675
CUBEBUG 2 26 Mar 10:22:54 10:26:25 24° 289° (WNW) 10:29:51 437.445
AAUSAT CUBESAT 2 26 Mar 10:23:47 10:27:27 31° 287° (WNW) 10:31:07 437.432
Oscar 11 26 Mar 10:24:19 10:28:38 82° 103° (ESE) 10:32:55 .
ZACube-1 26 Mar 10:31:12 10:35:20 59° 284° (WNW) 10:39:24 437.345
PCSat 26 Mar 10:33:46 10:39:09 77° 294° (WNW) 10:44:35 145.827
PRISM 26 Mar 10:34:52 10:38:55 79° 258° (WSW) 10:43:00 437.425
BEESAT 2 26 Mar 10:54:43 10:55:33 11° 253° (WSW) 10:56:22 435.950
AO-73 26 Mar 11:00:18 11:03:53 28° 287° (WNW) 11:07:25 145.935
TIGRISAT 26 Mar 11:05:59 11:10:42 84° 258° (WSW) 11:15:23 435.000
UNISAT 6 26 Mar 11:16:09 11:20:47 58° 259° (W) 11:25:24 437.425
JUGNU 26 Mar 11:23:18 11:28:13 27° 184° (S) 11:33:10 437.505
FO-29 26 Mar 11:25:28 11:33:21 88° 77° (ENE) 11:40:57 435.910
SRMSAT 26 Mar 11:37:09 11:41:55 24° 171° (S) 11:46:40 437.500
AIST 2D 26 Mar 11:38:42 11:41:31 23° 73° (ENE) 11:44:21 435.315
DELFI C3 26 Mar 11:46:23 11:49:55 31° 286° (WNW) 11:53:27 145.870
NANOSAT C BR1 26 Mar 11:47:36 11:50:26 18° 70° (ENE) 11:53:16 145.865
EO-79 26 Mar 11:51:30 11:54:45 21° 71° (ENE) 11:58:00 145.935-145.965
LO-87 26 Mar 11:53:00 11:55:59 23° 97° (E) 11:58:56 145.935 - 145.965
POLYITAN 1 26 Mar 12:18:34 12:22:40 47° 75° (ENE) 12:26:47 437.675
QB50P2 26 Mar 12:23:04 12:27:16 59° 75° (ENE) 12:31:29 145.880/145.840
RS-15 26 Mar 12:35:10 12:46:04 46° 107° (ESE) 12:57:22 29.354- 29.394
DUCHIFAT 1 26 Mar 12:35:40 12:39:52 63° 76° (ENE) 12:44:05 145.980
ESTCUBE 1 26 Mar 12:40:08 12:44:30 48° 100° (E) 12:48:52 437.505/2401.250
BUGSAT 1 26 Mar 12:53:26 12:57:06 30° 72° (ENE) 13:00:48 437.445
SPROUT 26 Mar 13:04:48 13:08:01 21° 96° (E) 13:11:13 437.525
JUGNU 26 Mar 13:12:42 13:16:42 19° 194° (SSW) 13:20:44 437.505
AIST 2D 26 Mar 13:12:47 13:14:41 14° 265° (W) 13:16:35 435.315
FO-29 26 Mar 13:15:00 13:18:48 14° 268° (W) 13:22:34 435.910
NANOSAT C BR1 26 Mar 13:22:10 13:25:53 29° 262° (W) 13:29:36 145.865
SRMSAT 26 Mar 13:25:31 13:30:36 29° 181° (S) 13:35:39 437.500
EO-79 26 Mar 13:26:55 13:30:20 23° 263° (W) 13:33:47 145.935-145.965
LO-87 26 Mar 13:27:05 13:29:10 15° 289° (WNW) 13:31:16 145.935 - 145.965
DX 1 26 Mar 13:32:36 13:35:46 19° 96° (E) 13:38:56 434.975-435.025
VELOX 1 26 Mar 13:53:41 13:58:10 81° 283° (WNW) 14:02:37 145.980
Oscar 19 26 Mar 13:55:36 14:00:28 46° 73° (ENE) 14:05:21 437.125/150
POLYITAN 1 26 Mar 13:57:55 13:58:37 10° 267° (W) 13:59:19 437.675
Gurwin Techsat 1B 26 Mar 14:08:25 14:13:09 34° 71° (ENE) 14:17:55 435.225
UKube-1 26 Mar 14:12:22 14:16:26 40° 99° (E) 14:20:30 .
ESTCUBE 1 26 Mar 14:19:06 14:20:49 12° 293° (WNW) 14:22:33 437.505/2401.250
50 SAT 26 Mar 14:23:06 14:26:26 41° 285° (WNW) 14:29:45 437.505
BUGSAT 1 26 Mar 14:29:45 14:32:25 16° 265° (W) 14:35:07 437.445
NO-84 26 Mar 14:33:19 14:34:33 12° 41° (NE) 14:35:49 435.350 FM
SPROUT 26 Mar 14:40:22 14:43:49 24° 289° (WNW) 14:47:15 437.525
SO-50 26 Mar 14:46:12 14:50:21 32° 112° (ESE) 14:54:29 436.795
RS-15 26 Mar 14:47:03 14:58:23 47° 306° (NW) 15:10:10 29.354- 29.394
AO-7 26 Mar 14:59:32 15:05:52 25° 61° (ENE) 15:12:12 .
DX 1 26 Mar 15:08:11 15:11:53 27° 288° (WNW) 15:15:34 434.975-435.025
SRMSAT 26 Mar 15:14:45 15:19:16 22° 191° (S) 15:23:46 437.500
Oscar 19 26 Mar 15:37:02 15:39:56 15° 266° (W) 15:42:51 437.125/150
ITAMSAT 1 26 Mar 15:42:03 15:47:00 45° 72° (ENE) 15:51:58 435.822/435.867
Gurwin Techsat 1B 26 Mar 15:48:59 15:53:04 22° 264° (W) 15:57:11 435.225
BEESAT 26 Mar 15:49:52 15:54:08 32° 98° (E) 15:58:21 436.000
UKube-1 26 Mar 15:49:59 15:52:04 13° 292° (WNW) 15:54:09 .
ITUPSAT 1 26 Mar 16:05:44 16:10:20 48° 100° (E) 16:14:54 437.325
MOZHAYETS 4 26 Mar 16:08:40 16:11:59 20° 96° (E) 16:15:16
NO-84 26 Mar 16:08:55 16:12:14 52° 233° (SW) 16:15:52 435.350 FM
SO-50 26 Mar 16:27:14 16:30:49 21° 306° (NW) 16:34:22 436.795
AO-7 26 Mar 16:49:46 16:57:59 62° 256° (WSW) 17:06:12 .
CUBESAT XI-V 26 Mar 17:02:31 17:03:40 11° 93° (E) 17:04:49 437.345
SRMSAT 26 Mar 17:06:16 17:07:50 11° 199° (SSW) 17:09:25 437.500
RS-15 26 Mar 17:09:56 17:15:12 13° 335° (NNW) 17:20:28 29.354- 29.394
ITAMSAT 1 26 Mar 17:23:19 17:26:34 17° 265° (W) 17:29:51 435.822/435.867
O/OREOS (USA 219) 26 Mar 17:25:21 17:29:47 60° 106° (ESE) 17:34:15 437.305
KKS-1 26 Mar 17:26:47 17:30:41 29° 98° (E) 17:34:32 437.445
BEESAT 26 Mar 17:28:15 17:31:37 20° 291° (WNW) 17:34:59 436.000
MOZHAYETS 4 26 Mar 17:45:11 17:49:05 29° 288° (WNW) 17:52:58
ITUPSAT 1 26 Mar 17:45:24 17:47:41 13° 293° (WNW) 17:49:57 437.325
STARS 26 Mar 18:03:02 18:06:58 31° 98° (E) 18:10:52 437.465
XW-2C 26 Mar 18:04:25 18:06:00 12° 70° (ENE) 18:07:34 145.795 - 145.815
DOVE 4 26 Mar 18:29:23 18:33:42 42° 73° (ENE) 18:38:16 437.250
CUBESAT XI-V 26 Mar 18:36:43 18:41:15 53° 285° (WNW) 18:45:47 437.345
XW-2F 26 Mar 18:53:59 18:57:42 57° 77° (ENE) 19:01:26 145.980 - 146.000
LilacSat-2 26 Mar 18:55:18 18:59:07 67° 76° (ENE) 19:02:55 437.200
HO-68 26 Mar 18:55:59 19:00:20 17° 61° (ENE) 19:04:41 435.675
KKS-1 26 Mar 19:03:47 19:06:58 19° 291° (WNW) 19:10:08 437.445
O/OREOS (USA 219) 26 Mar 19:09:07 19:09:33 10° 301° (WNW) 19:09:58 437.305
CUTE-I 26 Mar 19:10:27 19:15:49 85° 76° (ENE) 19:21:13 437.470
NUDT-PHONESAT 26 Mar 19:19:19 19:23:04 74° 259° (W) 19:26:49 437.300
XW-2D 26 Mar 19:19:57 19:23:41 53° 260° (W) 19:27:25 145.860 - 145.880
YUBILEINY 26 Mar 19:23:20 19:31:33 44° 79° (E) 19:39:44 435.215
XW-2B 26 Mar 19:25:58 19:29:38 45° 261° (W) 19:33:18 145.730 - 145.750
KAITUO 1B 26 Mar 19:26:43 19:30:25 56° 260° (W) 19:34:06 145.475/437.950
PCSat 26 Mar 19:27:40 19:32:15 27° 58° (ENE) 19:36:49 145.827
XW-2A 26 Mar 19:31:53 19:34:18 18° 72° (ENE) 19:36:43 145.665 - 145.685
XW-2C 26 Mar 19:36:25 19:39:51 32° 262° (W) 19:43:17 145.795 - 145.815
STARS 26 Mar 19:40:07 19:43:01 17° 291° (WNW) 19:45:55 437.465
Tancredo 1 26 Mar 19:40:15 19:40:53 10° 125° (SE) 19:41:32 437.200
CUBEBUG 2 26 Mar 19:41:21 19:42:26 11° 67° (ENE) 19:43:31 437.445
SEEDS 26 Mar 19:49:37 19:52:21 17° 70° (ENE) 19:55:05 437.485
CUTE 1.7 + AOD 2 26 Mar 19:55:26 19:59:12 33° 74° (ENE) 20:02:58 437.475
M-CUBED/EXP-1 PRIME 26 Mar 19:58:21 20:03:03 85° 105° (ESE) 20:07:41 437.505
DOVE 4 26 Mar 20:09:13 20:11:35 14° 268° (W) 20:14:02 437.250
AO-85 26 Mar 20:28:41 20:31:54 19° 111° (ESE) 20:34:58 145.980
HO-68 26 Mar 20:40:09 20:47:16 73° 256° (WSW) 20:54:26 435.675
UWE-3 26 Mar 20:40:33 20:44:39 31° 73° (ENE) 20:48:43 435.000/436.395/437.385
XW-2A 26 Mar 21:04:38 21:06:55 17° 264° (W) 21:09:12 145.665 - 145.685
STRAND 1 26 Mar 21:07:31 21:12:36 73° 285° (WNW) 21:17:40 437.568
AAUSAT CUBESAT 2 26 Mar 21:07:38 21:11:43 77° 77° (ENE) 21:15:49 437.432
PCSat 26 Mar 21:10:49 21:15:34 31° 252° (WSW) 21:20:17 145.827
Tancredo 1 26 Mar 21:13:41 21:16:40 41° 317° (NW) 21:19:42 437.200
CUBEBUG 2 26 Mar 21:13:45 21:18:27 62° 259° (W) 21:23:10 437.445
Oscar 11 26 Mar 21:13:48 21:17:34 30° 73° (ENE) 21:21:20 .
ISS 26 Mar 21:14:00 21:17:09 49° 317° (NW) 21:20:20 437.550
YUBILEINY 26 Mar 21:20:38 21:27:57 32° 274° (W) 21:35:18 435.215
ZACube-1 26 Mar 21:20:44 21:25:09 51° 76° (ENE) 21:29:32 437.345
SEEDS 26 Mar 21:24:13 21:27:46 27° 263° (W) 21:31:21 437.485
CUTE 1.7 + AOD 2 26 Mar 21:32:46 21:35:04 14° 266° (W) 21:37:21 437.475
RS-15 26 Mar 21:44:00 21:54:45 34° 48° (NE) 22:05:01 29.354- 29.394
AO-73 26 Mar 21:48:55 21:53:28 80° 260° (W) 21:57:58 145.935
AO-85 26 Mar 22:08:05 22:12:06 31° 301° (WNW) 22:15:53 145.980
UWE-3 26 Mar 22:17:43 22:21:03 19° 265° (W) 22:24:22 435.000/436.395/437.385
PRISM 26 Mar 22:22:12 22:25:23 21° 97° (E) 22:28:33 437.425
DELFI C3 26 Mar 22:25:44 22:29:35 63° 76° (ENE) 22:33:28 145.870
BEESAT 3 26 Mar 22:44:14 22:48:01 55° 114° (ESE) 22:51:53 437.485
FO-29 26 Mar 22:46:05 22:47:53 11° 90° (E) 22:49:38 435.910
Oscar 11 26 Mar 22:50:55 22:53:41 17° 265° (W) 22:56:27 .
ZACube-1 26 Mar 23:00:27 23:01:35 11° 267° (W) 23:02:43 437.345
BEESAT 2 26 Mar 23:00:46 23:04:09 28° 112° (ESE) 23:07:35 435.950
TIGRISAT 26 Mar 23:03:40 23:07:29 29° 97° (E) 23:11:13 435.000
UNISAT 6 26 Mar 23:13:37 23:17:48 43° 99° (E) 23:21:52 437.425
ESTCUBE 1 26 Mar 23:34:49 23:38:19 23° 71° (ENE) 23:41:50 437.505/2401.250
RS-15 26 Mar 23:56:02 00:07:59 66° 249° (WSW) 00:19:19 29.354- 29.394
LO-87 26 Mar 23:56:09 23:59:43 87° 259° (W) 00:03:20 145.935 - 145.965
PRISM 26 Mar 23:57:16 00:00:32 23° 289° (WNW) 00:03:47 437.425
POLYITAN 1 27 Mar 00:11:03 00:12:29 11° 94° (E) 00:13:55 437.675
QB50P2 27 Mar 00:14:49 00:17:11 15° 94° (E) 00:19:32 145.880/145.840
BEESAT 3 27 Mar 00:25:46 00:25:55 10° 310° (NW) 00:26:05 437.485
DUCHIFAT 1 27 Mar 00:26:31 00:28:56 15° 95° (E) 00:31:20 145.980
FO-29 27 Mar 00:27:51 00:33:33 61° 286° (WNW) 00:38:46 435.910
BEESAT 2 27 Mar 00:39:14 00:41:55 17° 306° (NW) 00:44:37 435.950
TIGRISAT 27 Mar 00:40:59 00:43:53 18° 291° (WNW) 00:46:44 435.000
AIST 2D 27 Mar 00:41:27 00:44:54 61° 100° (E) 00:48:19 435.315
VELOX 1 27 Mar 00:45:22 00:49:31 43° 74° (ENE) 00:53:42 145.980
50 SAT 27 Mar 00:51:29 00:54:21 25° 73° (ENE) 00:57:14 437.505
UNISAT 6 27 Mar 00:52:16 00:54:02 12° 293° (WNW) 00:55:47 437.425
